User: anonymous   Login
Location: Fiddletown
(38.4917°N, 120.6633°W)
Time: 12:45:18
(UTC-07:00)
Language:

Envisat - Orbit

View from above orbital plane
View from above orbital plane
View from above satellite
View from above satellite

Ground track
Ground track

The orbit data is extracted from the following two-line orbital elements,

1 27386U 02009A   18146.53736734 -.00000002  00000-0  13032-4 0  9991
2 27386  98.1860 181.6165 0001262  89.8145  31.0806 14.37922625850411
Epoch (UTC): 26 May 2018 12:53:48
Eccentricity: 0.0001262
inclination: 98.1860°
perigee height: 764 km
apogee height: 766 km
right ascension of ascending node: 181.6165°
argument of perigee: 89.8145°
revolutions per day: 14.37922625
mean anomaly at epoch: 31.0806°
orbit number at epoch: 85041

The dashed part of the orbit path shows where the satellite is in the earth's shadow,  

DLR